Location: Sternwarte_Laufen
(47.9344°N, 12.9346°E)
Time: 09:20:27
(UTC+01:00)

Envisat - Visible Passes

Search period start: 19 February 2019 00:00
Search period end: 01 March 2019 00:00
Orbit: 764 x 766 km, 98.2° (Epoch: 19 February)

Date Brightness Start Highest point End Pass type
(mag) Time Alt. Az. Time Alt. Az. Time Alt. Az.
19 Feb 3.2 18:50:30 10° S 18:55:34 75° WSW 19:00:42 10° NNW visible
19 Feb 6.3 20:34:45 10° W 20:35:29 10° W 20:36:13 10° WNW visible
20 Feb 3.1 18:13:56 10° SSE 18:18:53 55° ENE 18:23:51 10° N visible
20 Feb 5.4 19:54:20 10° SW 19:58:14 22° W 20:02:10 10° NW visible
21 Feb 6.2 06:20:43 10° NE 06:23:29 14° E 06:26:14 10° ESE visible
21 Feb 4.2 19:16:21 10° S 19:21:12 45° W 19:26:05 10° NNW visible
22 Feb 3.0 18:39:17 10° SSE 18:44:22 89° ENE 18:49:29 10° NNW visible
22 Feb 6.1 20:21:44 10° WSW 20:24:06 13° W 20:26:29 10° WNW visible
23 Feb 5.1 19:42:38 10° SSW 19:46:55 27° W 19:51:14 10° NW visible
24 Feb 6.6 06:10:27 10° ENE 06:12:06 11° E 06:13:46 10° ESE visible
24 Feb 3.8 19:04:58 10° S 19:09:57 55° W 19:14:57 10° NNW visible
25 Feb 3.0 18:28:06 10° SSE 18:33:10 73° ENE 18:38:15 10° N visible
25 Feb 5.9 20:09:35 10° SW 20:12:45 16° W 20:15:56 10° NW visible
26 Feb 4.8 19:31:03 10° SSW 19:35:37 33° W 19:40:13 10° NNW visible
27 Feb 3.4 18:53:39 10° S 18:58:42 69° WSW 19:03:48 10° NNW visible
28 Feb 3.1 18:17:00 10° SSE 18:21:59 59° ENE 18:26:59 10° N visible
28 Feb 5.6 19:57:40 10° SW 20:01:24 20° W 20:05:09 10° NW visible
